CAPE
1209 1490 1363 1387 1465 1508 1458 1517 1392 1259 1215 1143 1047 920 908 894 814 891 1339 1515 1621 1803 2064 2242 2431 2436 2330 2552 2524 2800 3249 3111 3115 3269 3522 3620 3576 3515 3344 3706 3632 3475 3671 3664 3350 3432 3663 3586 3537 3714 3825 3583 3439 3297 2959 3286 3673 3471 3575 3676 3329 3194 2691 2930 3109 3280 3541 3786 3133 2947 3004 3324 3103 4053 3952 3410 3446 3905 3902 4179 4615 4379 4044 4035 4078
1159 1348 1324 1331 1346 1389 1268 1266 1297 1233 1116 1073 1031 888 857 889 854 865 940 1155 1428 1409 1746 1766 2073 2226 2147 2407 2682 2740 3155 3348 3070 2990 3270 3439 3454 3270 3442 3722 3701 3530 3673 3757 3782 3590 3593 3770 3526 3492 3901 3627 3175 3001 2922 2617 2496 2646 3379 3227 3182 3272 3212 3072 3260 3291 3464 3417 4029 3888 3660 3625 3371 3947 4160 3920 3779 3930 3988 4207 4142 3886 3929 3825 3708
944 1275 1339 1368 1400 1296 1226 1247 1227 1180 1061 1009 928 789 762 749 780 788 577 612 1062 1140 1454 1421 1885 2166 2038 2259 2700 2716 3000 2942 2846 2940 3102 3306 3319 3069 2924 3325 3463 3405 3466 3638 3418 3576 3601 3619 3439 3431 3454 3392 3454 3173 2717 2844 2531 2672 2797 3040 3362 3165 3389 3565 3328 3297 3283 3408 3748 3475 3457 3996 3964 3809 3968 3975 4065 4245 4470 4263 3576 3482 4018 4042 3898
752 1195 1275 1248 1248 1261 1316 1224 1078 1035 942 918 870 814 684 624 673 620 538 466 622 958 1117 1319 1817 2160 1996 2213 2512 2506 2693 2677 2687 2799 3051 3205 3232 3354 3326 3346 3311 3342 3229 3256 3200 3327 3318 3499 3315 3236 3464 3527 3524 3492 3384 3242 3184 3370 3355 3489 3790 3449 3600 3896 3647 3356 3307 3440 3726 3879 3705 3778 3856 3943 4105 4012 4110 4075 4053 4084 4150 4118 3818 3671 3508
632 835 1066 1058 1082 1168 1181 1138 1062 993 887 819 817 773 701 566 492 456 435 390 407 571 942 1211 1621 1945 1660 1906 2164 2291 2334 2519 2630 2369 2522 2737 3084 3030 3191 3413 3406 3383 3338 3379 3318 3385 3386 3245 3160 3430 3770 3579 3511 3616 3422 3630 3481 3183 3265 3481 3704 3513 3706 3802 3926 3804 3676 3648 3676 4018 4426 4081 4080 4295 4326 3961 3801 3998 4611 4846 4106 3800 4289 3900 3556
668 664 615 796 1065 1107 1173 1106 1023 983 898 821 769 742 709 634 479 409 372 376 372 374 655 790 1036 1500 1530 1614 1876 2173 2213 2374 2492 2483 2190 2378 2694 2767 2932 3201 3085 3285 3310 3304 3382 3365 3185 3315 3249 3332 3494 3456 3250 3298 3734 3835 3762 3520 3340 3353 3543 3638 3818 3956 4038 4086 4057 3959 3918 3785 4087 4080 3952 4134 4441 3968 3695 3675 3845 4169 4630 4386 4428 4093 3653
752 769 744 696 1045 1102 1126 1136 1120 990 991 871 650 684 693 658 577 460 379 363 364 319 334 639 874 1060 1485 1459 1483 1862 2133 2074 2371 2614 2395 2462 2716 2732 2475 2770 2840 2903 3010 2840 2793 3013 3048 2946 3181 3277 3321 3410 3264 3223 3540 3944 3720 3472 3699 3821 3763 3792 3790 3805 4034 3944 3890 3799 3613 3724 3913 3948 4035 3762 4068 4294 3889 3817 3859 3816 4007 4613 4813 4568 4405
837 799 779 804 1023 1166 1153 1144 1139 1192 1113 1091 960 535 616 638 657 578 490 380 315 300 286 357 695 802 1072 1266 1434 1711 2085 2042 2282 2420 2388 2327 2426 2504 2529 2470 2398 2521 2599 2640 2530 2405 2667 2710 2435 2714 3118 3419 3432 3383 3485 3424 3684 3664 3430 3817 3761 3789 3347 3383 3820 3718 3639 3521 3550 3250 3359 3874 4191 4120 4106 4177 4236 4533 4733 4063 3824 4122 4337 5022 4612
909 876 816 804 1232 1403 1320 1183 1190 1323 1312 1313 1110 703 585 608 648 652 647 507 333 276 264 244 397 586 692 1025 1173 1340 1388 1577 1651 1995 2154 2278 2205 2029 2272 2313 2260 2299 2424 2222 2347 2604 2387 2338 2346 2342 2771 3307 3095 3079 3036 3155 3273 3470 3784 3901 3872 3723 3727 3520 3676 3774 3718 3486 3501 3628 3839 3913 3947 4191 4024 4128 4138 3776 3849 3998 4084 4145 4454 4367 4747
916 914 914 879 1441 1579 1656 1373 1359 1367 1337 1426 1454 1167 743 633 676 693 692 668 622 482 364 300 266 431 576 827 909 905 997 1112 1215 926 1275 1917 2168 1754 1911 2236 2242 2097 2331 2384 2086 2165 2271 2089 1881 2465 2670 2794 2591 2355 2189 2136 2181 2508 3120 3950 4067 3794 3776 3698 3673 3640 3578 3459 3348 3281 3304 3289 3287 3666 3953 3804 3809 4186 4236 4461 4533 4318 4459 4624 4549
914 893 865 1086 1391 1577 1648 1618 1639 1632 1503 1573 1608 1536 1222 821 696 745 760 796 767 767 723 653 330 228 274 407 538 500 537 502 256 0 0 136 1340 2045 1977 2296 2435 2347 2042 2293 2256 1706 1726 2147 2193 2418 2929 2631 2607 2108 2068 1965 1956 1975 1951 2154 3042 3621 3667 3658 3498 3482 3488 3427 3230 3379 3330 3454 3400 3332 3571 3474 3473 3745 3946 4093 4137 4192 4324 4284 4186
903 1030 1208 1535 1695 1580 1394 1640 1733 1766 1693 1609 1574 1632 1405 1278 1156 1137 787 835 852 871 871 845 792 711 482 401 256 305 384 168 0 0 0 0 198 1092 1406 1414 1386 1628 1730 1459 1661 1726 1628 1644 2023 2030 2559 3049 3032 3358 2555 2010 1958 1936 1956 2016 2044 2073 2391 3096 3492 3605 3640 3490 3377 3260 3120 3156 3502 3818 3553 3298 3850 3850 4235 4265 4221 4178 4164 4119 4166
1932 1371 1355 1497 1677 1805 1823 1839 1770 1738 1841 1792 1735 1623 1616 1524 1430 1276 811 839 874 896 924 951 957 943 922 828 718 515 256 37 0 0 0 0 0 106 450 754 809 914 1130 1492 1437 1655 1917 1896 1799 1956 2036 2534 2780 2776 3424 3664 2514 2044 2032 2048 2043 2067 2082 2056 2122 2930 3283 3470 3462 3596 3613 3679 3855 3906 3880 3836 4071 3870 3902 3928 4292 4387 4301 4196 4120
2023 2410 1870 1761 1785 1835 1993 1798 1840 1923 1920 1919 1862 1740 1608 1558 1314 816 848 866 898 951 990 1016 1022 1018 1022 1027 1006 970 892 766 446 0 0 0 0 3 206 359 681 829 1036 1248 1418 1546 2024 2289 2156 2161 2279 2537 2845 2819 3024 3387 3722 3347 2622 2298 2574 2453 2008 2030 2098 2100 2092 2673 3319 3626 3930 4178 4009 3980 4063 4220 3871 3615 3601 3651 3843 3971 4220 4290 4236
1610 1977 2558 2625 2044 2004 2158 2094 2038 2017 1834 1507 1672 1818 1640 1666 1566 1189 849 967 1219 1250 1042 1064 1090 1094 1089 1083 1085 1090 1107 1091 1083 1019 893 734 122 0 103 293 484 863 1102 1364 1639 1550 1822 2310 2252 2029 2211 2676 2885 2946 2989 3258 3536 3512 3609 3518 3322 3230 3331 3063 2413 2102 2011 2071 2693 3256 3587 3783 4060 4170 4096 4134 3932 3798 3707 3810 3835 3884 3816 3654 3472
1044 1235 1702 2022 2260 2349 2344 2090 2244 2021 1423 1259 1475 1774 1620 1780 1931 1659 1466 943 980 1026 1094 1122 1145 1177 1174 1162 1150 1164 1189 1198 1188 1181 1188 1164 1047 908 748 626 662 746 1093 1500 1633 1911 1877 1961 2278 2240 2166 2433 2709 2153 2208 2779 3122 3382 3443 3518 3484 3488 3352 3215 2929 2618 2780 2822 2940 2849 2886 3061 2998 3583 3583 3248 3367 3802 3784 3387 3406 3052 3351 3671 3826
1032 944 1611 1607 1768 1681 1671 1743 2052 1718 1262 1184 1321 1526 1606 1935 1846 1608 1520 1316 1029 1070 1485 1185 1199 1225 1231 1232 1220 1225 1252 1298 1327 1347 1366 1391 1339 1260 1156 1007 846 944 1022 1400 1741 1884 1982 2038 2207 2088 2125 2499 2457 1896 1609 1609 2538 2923 3137 3178 3212 3134 3046 3181 2754 2344 2091 1907 2015 2100 2070 2012 1954 1869 1762 1685 1667 2484 2932 2926 3055 3199 3609 3642 3513
981 881 787 1105 1330 1362 1344 1464 1711 1874 1684 1187 1119 1365 1595 1692 1873 1748 1714 1543 1109 1236 1664 1680 1555 1412 1272 1295 1310 1296 1349 1401 1451 1477 1488 1523 1577 1537 1428 1293 1103 1180 1256 1398 1636 1870 2078 1900 2238 2274 2148 2319 2152 1761 1473 1312 2255 2609 2928 3011 2990 3054 3129 2964 3097 2949 1993 1774 1692 1605 1572 1562 1569 1563 1568 1543 1543 1549 1978 2620 2810 2989 3314 3444 3240
876 1005 1054 994 1139 1296 1341 1372 1646 1585 1834 1751 1488 1413 1504 1604 1694 1642 1625 1644 1736 1780 1676 1870 1887 1854 1664 1404 1399 1418 1468 1510 1554 1605 1633 1638 1716 1787 1707 1563 1358 1197 1136 1311 1526 1692 1913 1934 1824 1809 2112 2224 1844 1600 1378 1370 2138 2497 2821 2964 2863 2906 2930 3109 3458 3501 3372 2534 2059 1791 1703 1580 1518 1526 1540 1450 1416 1382 1442 2084 2507 2707 3053 3232 3051
496 683 889 1133 1140 1215 1225 1312 1569 1675 1369 1677 1787 1452 1290 1251 1196 1305 1510 1736 1931 1981 2040 2073 2082 2122 2060 1961 1655 1626 1648 1667 1691 1702 1759 1777 1790 1909 1948 1901 1696 1415 1247 1221 1455 1797 1870 2152 1873 1130 1138 1325 1506 1422 1264 1172 1856 2434 2599 2700 2799 2937 2856 3068 3430 3610 3634 3344 3138 2997 3070 3105 3116 3119 3000 2737 1784 1420 1498 1761 2272 2662 3016 3299 3258
168 549 566 865 1037 1202 1300 1393 1419 1531 1995 2000 1794 1927 2259 2169 1630 1822 1855 1937 1986 2290 2326 2292 2234 2286 2217 2245 2188 1896 1778 1886 2210 1834 1855 1876 1878 1960 2068 2099 1984 1727 1474 1490 1459 1548 1934 2104 2030 1704 1137 986 1000 1089 1106 1086 1083 2074 2632 2764 2776 2845 2750 3016 3244 3157 3057 2969 2960 2965 2889 2914 2840 2772 2745 2937 2938 2603 1897 1851 2055 2353 2832 3180 3205
105 126 344 588 559 750 955 1229 1376 1464 1532 1911 2337 2397 2010 1958 1792 1800 1811 1847 1715 2622 2629 2588 2495 2494 2457 2459 2440 2420 2166 1984 2299 1998 1928 1946 1936 1921 2118 2175 2178 2051 1817 1669 1608 1545 1657 2006 2459 2052 1406 1129 945 898 950 987 1033 1060 2271 2181 2209 1999 2060 2579 2909 3063 3082 2832 2732 2747 2795 2906 2874 2893 2792 2786 2742 2851 3080 2819 2288 2270 2786 3058 3343
0 0 46 235 414 371 380 636 888 1124 1125 1302 1482 2022 2206 1857 1852 1618 1813 1957 1778 2100 3114 2969 2792 2724 2768 2738 2658 2670 2639 2513 2003 2100 2013 1985 1971 1944 2082 2211 2256 2206 2070 1818 1816 1752 1884 2064 2283 1851 1454 1203 1038 944 903 924 954 1023 1079 1226 1424 1518 1442 1670 2033 2373 2672 2724 2726 2830 2882 2875 2832 2820 2875 2996 2990 3122 3239 3316 3198 3180 2984 3034 3282
0 0 18 0 102 194 277 267 264 509 722 891 1302 1496 1816 2094 1791 1782 1719 1758 1630 1795 2297 2893 2960 2646 2442 2386 2374 2300 2695 2829 2252 2089 2052 2015 1962 1965 2081 2282 2318 2327 2270 2119 1870 1808 1844 2036 2184 1563 1259 1085 984 932 898 890 898 943 997 1055 1114 1187 1253 1286 1681 2055 2242 2373 2434 2576 2831 2877 2901 3006 2968 3059 3110 3422 3716 3682 3670 3775 3824 3438 3568
0 6 18 18 0 78 189 224 255 333 498 681 1067 1467 1689 1682 1738 1774 1754 1653 1475 1778 2109 3040 3086 2849 2478 2390 2469 2623 2522 2849 2921 2336 2077 2013 2019 2013 2061 2205 2396 2428 2381 2301 2161 1921 1690 1554 1498 1384 1186 1021 940 896 877 880 876 909 948 1009 1077 1135 1204 1311 1476 1981 2238 2343 2439 2558 2634 2769 2942 3087 3134 3343 3511 3368 3208 3258 3486 3710 3551 3383 3755
0 1 0 0 0 0 76 158 251 273 330 642 918 1340 1722 1785 1825 1722 1909 1932 1996 2237 2407 2969 3088 3003 2950 2523 2438 2811 2565 2985 2980 2904 2163 2064 2041 2039 2067 2261 2347 2429 2459 2403 2344 2178 1883 1556 1264 1138 1026 968 936 917 923 964 1002 1017 1050 1083 1135 1188 1258 1328 1438 1680 2117 2350 2443 2540 2706 2844 2906 3038 3209 3310 3165 3046 3048 3265 3446 3361 3388 3662 3470
0 0 1 1 0 0 2 1 121 192 211 411 722 1244 1656 1990 2014 2073 1991 1799 2370 2450 2611 3035 2934 2616 2842 2654 2539 2585 2917 2963 3166 3026 2886 2188 2030 2042 2042 2172 2336 2404 2478 2495 2481 2329 2107 1748 1426 1212 1089 1020 1000 993 1011 1073 1126 1152 1189 1214 1247 1281 1350 1418 1759 2096 2187 2413 2495 2601 2689 2788 2876 2895 3140 3046 2825 2816 2896 3033 2983 3194 3161 3509 3292
0 0 0 0 0 0 1 3 4 114 150 338 600 738 1286 1771 2063 2268 2586 2621 2749 2713 2969 2833 2836 2878 2979 3000 3027 3035 2871 3229 3163 3132 2926 2820 2345 2047 2003 2013 2240 2372 2458 2538 2549 2435 2240 1908 1561 1324 1192 1110 1077 1070 1102 1140 1186 1226 1258 1281 1315 1349 1434 1503 1590 2033 2504 2639 2680 2694 2686 2708 2745 2640 2463 2449 2554 2666 2873 2864 2815 2748 2604 2519 2453
0 0 0 0 0 1 1 2 3 2 111 109 120 361 640 1298 1856 2107 2208 2708 2485 2643 2811 2972 3394 3407 3402 3240 3300 3392 3329 3342 3335 2815 2824 2624 2575 2391 1930 1958 2274 2393 2500 2532 2568 2534 2322 2030 1730 1463 1308 1233 1184 1347 1385 1585 1738 1712 1740 1668 1374 1453 1464 1540 1618 1754 2049 2311 2410 2589 2569 2751 2692 2535 2441 2339 2441 2526 3009 2786 2510 2333 2266 2102 1898
0 0 0 0 0 1 1 2 2 4 74 92 16 2 51 558 1277 1797 2204 2357 2320 2205 2194 2568 2984 3293 3357 3340 3485 3465 3576 3576 2881 2545 2376 2239 2132 2010 1909 1897 2129 2247 2324 2342 2346 2394 2372 2241 1983 1726 1491 1437 1473 1596 1688 1828 1976 2061 2106 1860 1912 2037 1963 1810 1822 1930 2035 2121 2289 2214 2256 2357 2515 2520 2254 2032 2361 2484 2136 2196 2255 2151 1906 1686 1620
0 0 0 0 0 2 3 2 3 6 5 52 4 6 52 111 384 1308 1839 2184 2490 2569 2518 2442 2331 2324 2294 3127 3210 2838 2784 2736 2619 2456 2281 2135 2012 1933 1858 1646 1916 2110 2230 2294 2312 2280 2245 2216 2124 1958 1783 1568 1678 1753 1841 1950 2046 2187 2331 2328 2112 2038 1772 1952 2078 2017 1933 1944 1985 2129 2270 2259 2308 2400 2083 2131 2146 2120 2191 2215 2070 1793 1839 1671 1523
0 0 0 0 1 1 2 4 5 6 7 8 16 69 132 208 341 445 1550 2124 2431 2652 2787 2837 2754 2545 2308 2240 2346 2871 2589 2422 2242 2132 2073 1991 1906 1831 1787 1563 1829 2036 2220 2228 2246 2222 2182 2175 2121 2029 1920 1806 1669 1737 1855 2046 2190 2316 2431 2487 2484 2295 2118 2152 2339 2394 2207 2116 2083 2165 2240 1852 1943 2051 2108 2072 2018 2029 2035 1958 1798 1834 1859 1812 1801
0 0 0 0 0 2 4 6 6 6 8 7 4 4 4 4 9 60 274 1548 2209 2502 2750 2826 2794 2696 2608 2410 2265 2145 2117 2046 2115 2054 1986 1871 1817 1790 1765 1801 1784 2022 2204 2314 2333 2322 2303 2253 2160 2071 1990 1926 1813 1704 1931 1955 2110 2334 2526 2598 2650 2702 2613 2721 2394 2643 2361 2273 2034 1776 1744 1976 2190 2276 2199 1935 1628 1537 1562 1664 1772 1986 2036 1952 1854
0 0 1 2 4 6 7 7 10 10 12 10 8 6 6 6 6 30 157 566 1374 2200 2587 2767 2695 2569 2492 2410 2318 2218 2092 1951 1886 1838 1833 1880 1898 1900 1891 1958 1989 1993 2012 2213 2379 2454 2447 2401 2304 2229 2180 2110 2013 1854 1838 2074 2145 2332 2522 2666 2772 2961 3421 3391 2690 2029 1602 1583 1696 1849 2019 2199 2348 2300 2092 1827 1519 1565 1738 1816 1882 1942 1968 1829 1744
0 0 2 6 8 6 4 4 5 6 8 8 4 6 5 11 44 103 214 485 907 1407 2006 2653 2774 2646 2575 2442 2298 2168 2072 1963 1868 1853 1913 1938 1957 1978 1997 2045 2109 2150 2136 2138 2311 2475 2567 2555 2478 2390 2340 2322 2257 2123 1903 2143 2250 2297 2462 2728 2831 2863 3406 3086 2339 1798 1672 1755 1876 2029 2157 2338 2366 2203 1897 1654 1498 1479 1789 2009 2035 1982 1871 1852 1947
0 1 1 2 3 3 4 6 6 8 5 6 8 8 5 6 7 58 126 384 668 1134 1448 2073 2644 2544 2673 2802 2839 2722 2480 2203 2014 1918 1886 1961 2003 2026 2070 2113 2162 2196 2237 2271 2329 2432 2543 2655 2677 2580 2486 2466 2417 2336 2177 2156 2366 2464 2488 2511 2604 2755 2902 2760 1979 1838 1847 1916 2076 2205 2346 2378 2330 2259 2102 2002 1838 1768 1849 1971 2037 1982 2064 2240 2381
1 1 2 3 4 4 4 4 4 6 6 6 6 6 6 5 6 38 336 566 730 996 1423 1805 2090 2772 2427 2582 2786 2913 2907 2832 2589 2360 2190 2117 2066 2093 2151 2197 2218 2248 2301 2368 2396 2452 2570 2682 2748 2743 2699 2630 2568 2532 2404 2284 2294 2447 2439 2477 2688 2838 2758 2586 2201 2016 2049 2168 2260 2407 2414 2324 2210 2216 2293 2310 2205 2143 2224 2298 2256 2246 2287 2401 2511
2 2 3 4 4 3 4 4 4 5 7 8 7 8 8 12 88 275 517 592 710 853 1019 1433 1767 2355 2452 2842 2672 2721 2958 3003 2978 2912 2749 2553 2374 2266 2240 2250 2314 2392 2468 2490 2495 2564 2671 2768 2811 2843 2799 2785 2611 2536 2492 2391 2086 2519 2663 2710 2788 2864 2437 2263 2125 2108 2195 2242 2337 2357 2280 2203 2206 2327 2437 2420 2344 2423 2458 2463 2433 2490 2484 2461 2508
2 2 3 3 3 5 5 6 7 6 7 10 14 16 8 28 286 565 596 767 858 955 1216 1367 1559 1787 2046 2342 2331 2421 2549 2787 2990 3041 3061 3038 2968 2833 2662 2545 2486 2487 2512 2539 2564 2626 2735 2828 2878 2958 2953 2774 2677 2736 2678 2489 2425 2520 2530 2481 2313 2334 2186 2060 2069 2109 2107 2131 2118 2109 2142 2271 2343 2446 2448 2342 2400 2415 2461 2485 2474 2496 2534 2545 2390
2 2 1 2 6 7 9 10 10 9 10 10 12 15 9 6 28 289 609 722 817 974 1063 1238 1325 1452 1642 1850 2023 2142 2264 2448 2624 2699 2671 2782 2943 2992 2974 2975 2962 2923 2848 2765 2736 2758 2789 2833 2886 2977 2998 2850 2708 2796 2744 2566 2456 2250 2477 2096 2080 2052 2220 2049 2057 2054 2065 2080 2049 2066 2251 2360 2425 2419 2333 2380 2387 2455 2536 2602 2607 2583 2584 2540 2324
2 2 4 4 5 5 5 4 5 5 7 7 98 132 161 6 4 275 418 541 728 876 960 1004 1170 1089 1252 1507 1772 1940 2065 2176 2262 2358 2451 2519 2624 2734 2856 2991 2924 2866 2889 2849 2805 2737 2718 2762 2834 2934 2961 2895 2741 2485 2588 2569 2528 2403 2297 2288 2274 2294 2279 2235 2124 2053 2020 2045 2066 2216 2363 2366 2314 2296 2390 2438 2500 2553 2610 2637 2568 2373 2261 2213 2108
3 4 4 7 6 4 2 2 1 2 4 9 181 253 279 279 4 245 382 536 711 844 938 1043 1097 1101 1103 1227 1452 1665 1869 2006 2048 2079 2088 2125 2217 2339 2571 2835 3098 3228 3261 3119 3000 2891 2836 2812 2834 2827 2904 2954 2820 2551 2506 2586 2491 2486 2434 2336 2238 2322 2386 2321 2232 2145 2123 2149 2242 2378 2425 2346 2252 2367 2386 2461 2541 2600 2596 2656 2664 2478 2243 2070 2042
3 5 6 6 4 2 1 0 0 2 3 104 272 273 240 236 230 280 378 489 544 658 752 969 1103 1190 1301 1337 1363 1397 1484 1624 1836 1979 2066 2115 2169 2258 2402 2625 2824 2967 3098 3174 3186 3146 3097 3011 2891 2871 2933 2910 2906 2901 2835 2803 2755 2648 2428 2422 2378 2411 2402 2396 2377 2360 2294 2307 2422 2510 2446 2342 2266 2318 2364 2462 2534 2588 2650 2494 2216 1964 1970 1968 1883
4 6 4 3 2 1 1 1 1 2 3 3 280 314 151 216 288 107 374 458 496 572 659 737 961 1207 1319 1429 1535 1556 1523 1556 1574 1685 1913 2038 2162 2273 2409 2545 2675 2754 2828 2865 2929 2940 2902 2796 2668 2626 2751 2971 3072 3102 3096 2967 2553 2418 2335 2487 2403 2374 2443 2617 2661 2688 2631 2587 2530 2486 2448 2294 2138 2152 2360 2526 2564 2551 2500 2445 2147 1938 1713 1569 1384
2 2 2 1 0 0 0 1 2 1 2 3 1 1 76 187 262 361 474 553 566 588 629 663 764 913 1152 1302 1348 1332 1410 1476 1474 1607 1787 1907 1988 2054 2201 2362 2555 2672 2760 2774 2793 2754 2639 2532 2556 2641 2770 2919 3057 3092 3051 2820 2366 2281 2265 2330 2389 2621 2683 2709 2749 2726 2812 2674 2521 2419 2378 2257 2115 2149 2234 2246 1989 2025 2026 1866 1693 1560 1448 1367 1311
1 3 1 1 2 1 1 1 2 1 2 1 1 1 255 265 264 320 398 459 508 548 538 559 656 784 916 1051 1270 1466 1516 1513 1505 1488 1477 1518 1564 1690 1857 2010 2170 2377 2491 2522 2538 2526 2291 2071 2098 2210 2330 2516 2671 2789 2696 2417 2176 2102 2264 2385 2473 2568 2815 2800 2633 2447 2380 2497 2454 2225 2132 2085 1927 1851 1800 1692 1679 1608 1521 1316 1172 1132 1116 1064 1031
2 1 0 1 1 0 1 1 1 2 2 7 98 292 372 387 369 410 469 511 544 569 571 573 639 767 902 937 992 1102 1210 1340 1390 1450 1377 1331 1328 1382 1453 1460 1472 1574 1686 1890 2087 2026 1894 1908 1874 1942 2097 2186 2325 2381 2199 2080 2190 2268 2110 2138 2229 2567 2694 2384 2026 2009 2165 2309 2245 2090 1986 1788 1628 1575 1550 1450 1305 1188 1105 1108 1098 1029 965 885 798
5 8 7 3 2 1 1 0 1 3 4 16 182 342 462 501 479 451 507 568 608 624 615 581 596 711 794 874 917 998 1028 1059 1105 1192 1266 1333 1412 1487 1531 1544 1534 1510 1452 1413 1411 1481 1520 1562 1615 1718 1791 1844 1943 1894 1803 1873 2092 2264 2158 2058 2034 2416 2228 1727 1777 1956 2131 1878 1678 1617 1522 1438 1294 1125 1075 1036 996 993 974 1004 997 894 634 355 220
14 24 20 11 4 2 1 0 1 3 3 14 91 310 470 535 516 441 525 614 693 742 736 672 638 654 741 781 843 902 920 909 946 956 922 925 908 894 992 1106 1245 1363 1420 1350 1301 1249 1326 1474 1587 1612 1585 1462 1315 1477 1420 1648 2129 2204 1890 1679 1681 1734 1746 1426 1584 1807 1542 1468 1523 1230 1111 1051 1012 913 864 750 645 558 558 568 564 546 491 316 324
14 35 28 15 6 2 1 1 1 5 10 23 71 215 412 468 425 395 456 572 659 742 826 858 858 873 885 966 993 954 911 862 823 734 625 595 608 643 659 691 790 872 935 968 974 1086 1215 1396 1447 1261 1107 1064 1076 1100 1077 1283 1502 1484 966 1116 1088 1192 1192 1102 935 1190 1324 1270 1063 761 740 778 751 701 701 673 664 667 683 650 560 437 301 181 24
8 20 38 32 25 16 4 1 8 11 20 62 52 70 194 243 251 281 395 499 577 668 748 837 898 935 930 854 711 622 522 457 449 418 398 401 414 445 450 403 374 425 466 492 604 741 917 1122 1224 1146 920 910 1075 982 917 1046 685 819 729 808 1008 1126 964 687 693 750 719 613 472 464 530 582 603 612 584 576 541 480 418 338 233 126 35 152 18
Wind_Speed
16 17 17 15 14 12 11 11 9 9 8 8 7 8 9 8 8 8 9 8 9 8 7 7 7 7 6 6 5 5 5 4 5 4 3 2 3 4 6 5 6 6 5 5 5 6 7 9 9 9 8 9 10 11 13 12 11 9 7 6 6 4 3 4 7 9 8 5 5 6 6 4 3 0 3 4 5 4 5 4 5 6 7 6 6
17 19 19 19 15 14 12 13 12 12 8 8 7 9 9 10 10 10 8 8 8 7 6 6 7 6 6 6 6 6 6 5 5 5 3 2 2 4 5 5 6 7 6 6 5 5 5 7 9 9 8 9 11 12 12 13 11 10 8 7 6 5 2 4 6 8 9 6 4 4 3 2 1 1 0 3 4 4 4 3 3 4 4 4 3
18 21 21 20 18 17 16 15 15 11 8 9 8 8 9 10 11 9 8 9 9 7 7 6 7 7 7 7 7 7 6 5 6 5 4 3 2 3 5 5 5 5 6 6 7 6 6 6 8 8 8 9 9 11 12 12 12 11 10 8 7 6 4 2 3 5 7 6 4 4 2 0 2 1 1 2 2 3 2 1 1 0 1 1 2
22 22 22 21 20 20 18 17 15 13 10 11 9 9 11 11 11 10 10 10 10 9 8 7 8 8 7 8 8 7 7 6 6 6 5 4 3 3 4 5 5 5 6 6 6 6 7 7 8 7 7 8 9 9 9 10 10 10 9 9 8 7 7 5 3 3 4 5 3 2 2 0 2 3 3 4 4 4 4 4 5 5 3 3 4
23 24 22 21 21 20 18 18 17 15 13 13 11 12 12 13 13 11 11 10 10 11 10 9 9 8 8 8 8 8 7 7 6 5 5 5 5 4 4 5 5 5 5 6 6 6 7 7 7 6 5 7 7 7 7 6 7 9 9 10 10 9 9 9 7 6 5 4 4 4 4 3 3 4 5 4 4 5 6 7 7 6 7 6 5
19 23 24 23 23 20 20 19 17 16 15 15 14 15 15 14 14 14 12 11 12 11 11 10 9 8 9 9 9 9 8 8 7 6 5 6 6 5 6 5 5 6 5 5 5 5 6 7 7 6 5 6 7 7 6 5 6 6 6 8 9 11 10 10 10 9 8 7 6 6 7 7 7 7 8 8 6 4 5 8 10 10 9 8 7
19 22 23 22 23 22 21 20 20 20 19 18 19 19 17 16 15 15 15 13 12 11 10 10 11 10 10 10 9 10 9 8 9 8 7 7 7 7 7 6 6 7 6 5 5 5 5 6 6 5 5 5 6 6 6 5 5 5 5 6 7 8 9 10 10 10 10 9 9 9 9 10 12 11 13 12 9 9 8 9 10 12 13 12 9
19 21 23 24 24 22 22 22 22 23 24 24 22 20 20 19 17 18 17 14 13 11 11 11 11 12 11 11 11 11 11 9 9 9 9 9 9 8 8 8 7 6 6 6 5 5 5 5 6 5 4 3 4 4 4 4 5 5 5 5 5 6 6 7 7 8 8 8 9 9 10 11 13 14 15 15 13 13 15 14 13 13 13 15 14
18 20 22 23 24 25 26 26 27 27 27 28 25 23 22 21 21 20 18 16 16 14 13 12 12 12 12 12 12 12 11 9 10 11 11 10 10 9 9 9 8 7 7 6 6 5 5 5 5 5 3 2 2 2 2 3 4 4 3 3 4 4 5 5 5 5 6 6 6 8 8 9 11 12 14 15 15 13 14 15 15 16 16 15 16
20 18 18 20 24 27 30 30 30 30 30 29 28 26 25 24 22 21 19 17 17 17 16 15 13 12 12 13 13 13 12 12 10 9 10 12 12 12 12 11 9 9 8 7 6 5 5 5 5 4 2 1 2 2 3 2 1 1 3 4 4 4 4 4 4 4 5 5 5 6 6 7 9 11 11 12 12 12 12 14 16 17 17 16 17
21 19 16 17 22 27 31 31 32 32 31 31 31 30 27 26 25 23 21 20 19 19 18 15 13 13 12 12 12 12 11 11 9 nan nan 9 12 14 13 13 12 11 9 9 8 7 7 6 5 3 1 0 0 3 3 4 4 4 3 1 2 3 4 4 4 4 4 4 5 6 6 6 7 9 9 9 9 9 10 13 14 16 16 16 16
23 22 19 22 25 27 28 30 32 32 33 32 32 31 31 30 28 27 25 22 22 21 19 16 15 14 14 12 11 10 11 10 nan nan nan nan 11 13 14 14 14 13 11 10 10 10 8 7 7 6 5 4 4 4 5 5 5 6 6 5 5 4 2 3 4 5 6 5 5 6 6 6 7 10 10 9 9 8 9 11 13 13 14 15 17
38 28 25 26 26 27 28 31 31 32 33 33 34 35 34 31 29 28 25 24 25 24 20 18 16 15 14 12 11 10 11 nan nan nan nan nan nan 12 14 15 14 13 13 12 12 12 12 11 9 9 9 7 6 5 7 9 9 7 6 6 5 6 6 6 6 5 5 5 5 6 8 8 8 10 12 11 10 9 9 10 11 12 14 14 15
48 44 33 30 31 31 32 31 32 34 36 37 38 38 35 32 29 29 29 30 28 25 21 19 19 18 15 14 13 12 11 12 14 nan nan nan nan nan 14 13 14 14 14 14 14 13 13 12 11 10 10 10 10 9 10 10 11 12 9 8 7 7 9 9 9 9 9 8 7 7 8 10 9 9 11 13 12 11 10 9 9 9 11 12 13
53 50 50 44 38 36 35 34 33 36 38 38 38 37 35 34 33 31 31 30 29 27 24 22 21 19 17 15 15 13 13 11 16 15 14 14 15 nan 15 14 15 16 16 16 15 15 15 15 12 11 12 12 13 14 13 13 13 12 11 10 9 8 9 10 12 12 13 13 12 10 9 10 10 9 11 14 13 12 12 10 9 10 10 9 10
53 53 51 50 49 47 42 36 32 33 32 34 34 33 32 32 31 33 33 32 31 30 28 25 22 21 19 17 16 14 14 13 17 17 16 16 18 20 17 16 15 15 17 17 18 19 18 16 16 14 14 14 16 19 17 16 15 14 13 12 11 10 10 12 14 14 14 15 15 13 11 11 12 11 12 13 13 13 12 11 13 12 13 12 11
54 47 45 49 50 49 43 35 30 29 29 30 29 29 30 30 30 30 31 31 31 30 28 26 26 24 21 20 16 16 16 18 19 18 19 19 23 20 17 17 16 15 16 19 20 20 20 19 18 18 17 17 19 24 22 20 17 16 16 15 14 13 12 15 19 18 17 16 14 12 11 10 10 11 11 13 15 14 13 11 13 16 16 13 13
52 48 48 50 49 45 39 34 31 30 30 27 26 28 29 30 29 32 30 29 28 28 29 30 28 26 23 20 18 17 17 19 22 21 21 23 23 20 19 18 16 17 17 19 21 23 22 20 21 20 19 20 24 28 27 27 21 19 19 19 17 15 15 17 20 21 20 18 18 16 15 13 14 14 13 14 18 21 19 17 16 17 15 15 14
49 46 45 46 47 46 43 38 35 32 30 28 28 30 30 29 30 31 30 29 27 28 30 30 29 28 25 21 21 18 19 20 26 23 23 26 25 22 21 19 17 16 17 18 20 22 24 24 22 21 22 22 25 30 32 32 26 23 22 21 18 17 19 21 21 19 21 22 21 22 20 20 21 22 21 21 23 25 22 20 18 18 17 16 15
50 48 44 43 44 44 44 42 39 35 32 31 31 33 34 33 30 29 28 29 26 26 28 28 27 28 27 25 24 22 20 21 28 27 28 28 28 25 24 21 16 16 17 19 21 22 23 25 26 24 22 23 26 31 34 34 30 27 25 22 20 19 22 23 22 22 20 19 20 22 22 23 25 27 26 25 27 29 25 24 22 21 19 17 16
51 50 47 44 43 42 41 41 41 39 36 34 34 35 36 36 35 32 27 27 24 24 23 24 25 25 25 25 24 23 23 23 26 31 30 31 30 28 26 21 19 20 20 20 19 20 23 24 25 29 28 25 26 29 34 35 32 30 28 25 23 23 25 24 25 25 22 20 21 23 23 24 26 26 26 26 26 28 28 27 23 21 19 15 13
52 51 49 46 44 42 40 38 39 43 42 40 39 37 36 37 39 36 36 36 26 22 22 23 23 23 23 23 22 21 22 22 24 31 31 32 32 31 26 23 24 24 23 20 19 19 21 24 27 30 32 29 28 29 31 35 33 33 28 26 24 25 26 26 26 26 25 25 24 24 25 26 27 27 27 27 26 25 25 25 25 21 19 16 14
nan nan nan 49 46 44 42 36 35 39 43 42 38 36 38 37 34 33 33 31 27 23 23 23 22 21 22 21 21 19 20 23 22 26 30 30 32 30 25 22 27 27 23 22 21 22 24 24 25 28 33 31 30 29 31 32 35 31 26 25 26 25 28 28 27 27 27 27 27 26 27 27 27 28 28 27 25 24 23 21 20 20 19 18 15
nan nan nan nan 48 46 44 41 36 35 36 39 39 37 35 35 35 33 34 34 29 25 24 23 20 17 15 16 15 15 18 20 24 22 26 29 28 27 24 20 23 25 23 21 23 25 25 26 27 28 30 31 30 31 31 33 33 29 28 26 25 29 31 28 28 27 27 27 27 26 27 28 28 28 28 28 25 25 24 22 19 18 15 13 12
nan nan nan nan nan nan 45 44 41 37 35 35 37 37 36 35 33 33 34 34 29 24 21 21 19 16 15 13 14 15 16 20 21 25 25 29 27 26 23 21 19 20 20 19 22 23 25 26 28 29 31 32 31 30 31 31 29 29 30 29 31 33 31 29 27 29 28 28 28 28 28 29 29 29 29 28 27 26 24 23 21 19 14 12 10
nan nan nan nan nan nan nan 44 43 41 38 37 35 36 37 37 34 34 33 31 29 24 19 18 16 15 14 13 12 14 16 19 20 24 29 26 26 25 24 23 20 19 17 16 18 19 22 27 29 30 31 32 33 33 33 32 32 30 31 35 36 34 32 31 31 30 28 27 28 29 29 30 30 30 31 30 28 26 26 25 24 19 18 18 14
nan nan nan nan nan nan nan nan 45 44 43 43 40 38 39 39 36 34 32 29 26 21 17 15 13 12 11 11 12 13 15 17 20 21 24 27 26 27 25 23 21 20 19 17 17 21 23 26 30 32 30 30 29 28 27 28 33 34 34 35 33 32 32 31 30 30 28 27 27 28 30 30 31 32 32 30 27 26 27 27 25 23 22 24 22
nan nan nan nan nan nan nan nan nan 44 45 47 45 43 41 40 38 36 32 28 25 21 16 13 13 12 12 14 15 15 16 18 18 19 20 23 26 29 29 29 29 28 24 23 23 21 23 27 29 31 30 30 28 26 25 27 29 32 33 33 32 31 29 28 28 26 26 26 25 26 28 31 31 30 29 28 26 26 29 30 29 28 29 33 31
nan nan nan nan nan nan nan nan nan nan 45 47 47 45 43 41 41 42 39 33 27 23 20 17 17 16 16 17 18 19 18 17 17 20 22 24 25 26 28 28 30 30 25 26 29 28 26 26 27 27 26 25 23 21 22 24 26 28 28 30 30 29 29 29 28 27 28 28 26 25 25 28 28 29 29 27 27 29 33 33 33 33 31 29 26
nan nan nan nan nan nan nan nan nan nan nan nan nan nan nan 38 39 42 43 42 39 33 27 22 19 22 21 19 20 20 19 18 19 27 25 25 25 25 25 28 30 29 29 33 29 26 25 23 23 23 23 23 21 19 20 23 24 25 26 27 27 26 27 28 28 28 30 29 26 25 25 26 27 28 27 25 27 34 39 38 36 39 34 28 26
nan nan nan nan nan nan nan nan nan nan nan nan nan nan nan 44 38 33 36 37 31 28 27 23 19 20 24 22 21 21 17 18 26 34 31 28 27 25 24 26 31 29 40 44 33 27 25 24 22 21 21 21 21 21 22 23 24 24 25 26 26 25 25 26 28 31 31 30 27 25 25 26 25 27 27 28 30 36 39 37 37 37 31 26 26
nan nan nan nan nan nan nan nan nan nan nan nan nan nan 49 48 48 43 37 34 33 28 24 22 20 20 17 20 24 25 24 21 22 32 34 33 30 28 27 28 30 37 42 42 35 29 27 26 26 25 25 22 21 22 23 23 24 25 25 25 25 25 26 27 31 33 32 30 28 27 26 22 24 25 29 31 35 36 37 37 37 32 28 25 24
nan nan nan nan nan nan nan nan nan nan nan nan nan nan nan nan nan nan 45 40 34 32 30 26 23 23 25 24 24 24 23 31 34 34 36 35 33 31 31 32 36 44 49 40 31 29 29 29 28 30 30 27 25 25 25 26 26 26 26 26 26 27 27 29 34 32 32 31 29 25 24 23 25 28 31 33 35 34 35 35 33 30 28 26 25
nan nan nan nan nan nan nan nan nan nan nan nan nan nan nan nan nan nan 43 45 44 40 36 32 30 30 31 30 30 28 28 29 33 40 38 36 37 36 39 44 49 47 44 38 35 31 31 31 30 32 34 34 31 29 28 28 29 29 28 28 27 28 29 33 34 33 31 31 28 24 25 25 27 30 32 33 33 32 30 27 26 26 27 28 26
nan nan nan nan nan nan nan nan nan nan nan nan nan nan nan nan nan 45 44 44 43 42 44 43 39 34 34 36 36 34 32 32 34 40 44 41 43 52 56 49 46 43 39 35 34 34 33 34 33 35 36 37 38 35 31 30 31 32 31 29 28 29 31 33 33 33 34 33 29 26 26 28 29 31 33 32 33 33 27 21 22 25 27 29 28
nan nan nan nan nan nan nan nan nan nan nan nan nan nan nan nan nan nan 44 44 42 41 42 43 46 45 37 34 38 42 42 39 38 42 45 49 53 57 47 41 40 41 41 40 38 36 35 35 36 37 39 39 40 40 38 34 33 32 32 30 29 30 32 33 35 34 35 34 30 28 28 29 31 33 34 33 32 31 28 24 25 27 28 29 31
nan nan nan nan nan nan nan nan nan nan nan nan nan nan nan nan nan nan 45 44 42 42 44 47 48 48 51 49 47 49 50 46 43 43 47 52 52 48 40 39 38 41 42 42 42 41 39 37 38 39 40 40 41 42 41 38 35 34 33 32 31 31 32 34 36 35 35 34 32 30 30 31 32 35 37 36 33 32 30 29 30 31 31 33 37
nan nan nan nan nan nan nan nan nan nan nan nan nan nan nan nan nan 47 44 42 41 40 42 46 49 49 48 50 56 53 56 58 59 57 58 58 52 43 39 37 38 39 41 43 45 43 41 39 40 39 40 40 41 41 41 39 39 37 36 35 34 32 34 36 38 35 34 34 34 32 32 32 34 36 39 38 36 33 32 34 35 38 40 40 40
nan nan nan nan nan nan nan nan nan nan nan nan nan nan nan nan 46 44 43 42 41 39 40 42 44 46 48 53 54 55 56 50 47 45 47 47 46 44 41 40 40 39 39 40 45 44 41 41 40 41 41 41 40 41 42 41 41 40 40 38 35 34 35 36 36 36 35 34 33 34 34 34 36 39 42 41 38 37 36 39 43 44 40 43 43
nan nan nan nan nan nan nan nan nan nan nan nan nan nan nan nan nan 44 44 43 42 42 41 38 38 39 43 47 49 50 47 46 44 44 46 47 47 45 44 42 41 41 41 41 42 42 42 41 43 43 43 43 42 43 44 44 44 45 44 39 36 35 36 37 38 38 37 37 36 37 36 36 39 42 44 44 42 43 43 44 45 42 42 42 44
nan nan nan nan nan nan nan nan nan nan nan nan nan 52 52 nan nan 48 47 46 45 44 41 37 36 43 48 48 49 47 46 45 45 44 43 43 46 48 47 47 47 48 47 45 45 44 43 45 46 47 48 50 48 48 48 49 48 48 45 43 39 35 34 36 37 37 39 40 39 38 38 40 42 44 45 45 47 47 45 46 45 42 41 42 46
nan nan nan nan nan nan nan nan nan nan nan nan 53 55 56 55 nan 53 50 48 46 46 44 43 47 48 49 53 52 52 50 51 54 54 54 55 56 57 57 56 54 53 50 49 49 48 48 48 48 50 52 53 53 51 51 51 52 51 46 41 39 37 35 36 38 40 41 42 42 40 40 42 45 47 49 51 49 48 49 48 46 45 44 46 48
nan nan nan nan nan nan nan nan nan nan nan 58 56 57 60 60 59 57 55 53 51 51 50 50 49 49 51 53 56 58 56 57 58 57 56 57 57 58 58 57 56 54 54 53 52 51 52 52 51 54 56 57 57 57 56 54 57 58 54 47 45 46 46 45 44 42 42 43 45 47 48 49 51 52 54 54 54 55 55 55 54 53 50 49 50
nan nan nan nan nan nan nan nan nan nan nan nan 61 59 61 63 63 63 62 58 54 53 53 51 51 52 53 54 56 59 60 61 61 61 61 61 60 60 60 59 59 58 57 56 56 54 54 56 57 58 59 61 61 64 62 59 57 58 57 53 53 54 56 56 52 49 48 50 51 52 55 57 58 57 57 56 57 58 57 57 59 56 50 48 49
nan nan nan nan nan nan nan nan nan nan nan nan nan nan nan 61 59 60 62 60 56 53 53 53 52 52 54 55 56 58 60 62 63 64 64 63 63 62 61 60 59 60 59 59 58 58 58 59 59 60 61 62 63 64 64 63 61 59 56 56 59 58 57 58 57 55 54 55 55 57 61 63 62 60 59 57 57 59 60 60 59 55 51 49 50
nan nan nan nan nan nan nan nan nan nan nan nan nan nan 71 66 60 57 57 57 55 53 53 53 52 53 53 54 55 56 58 60 61 62 64 64 63 61 60 61 60 60 60 59 59 60 61 61 61 61 62 63 64 65 66 65 62 61 59 58 61 60 60 61 61 61 60 60 59 61 65 68 68 66 66 63 60 59 61 60 56 52 51 53 53
nan nan nan nan nan nan nan nan nan nan nan nan nan 81 79 76 71 65 61 60 58 56 56 56 56 54 53 54 54 55 56 58 58 59 61 62 62 61 59 59 61 62 60 60 61 62 63 64 63 63 61 61 61 62 64 66 66 65 64 66 66 67 64 65 66 66 65 64 64 67 71 72 71 68 67 66 64 61 61 61 58 55 53 52 51
nan nan nan nan nan nan nan nan nan nan nan nan 83 83 83 82 78 73 68 65 63 61 60 60 60 58 56 55 55 55 56 57 58 59 59 60 58 58 58 59 59 58 58 60 63 65 65 66 65 63 61 61 61 63 63 64 65 67 68 69 71 72 75 76 79 77 68 61 59 62 65 66 64 61 60 62 64 63 64 64 61 58 54 52 52
nan nan nan nan nan nan nan nan nan nan nan nan nan 84 84 83 82 79 76 72 70 68 65 64 63 62 59 58 57 56 56 57 58 59 58 57 56 56 56 58 58 58 58 59 60 62 64 65 66 65 64 64 62 62 61 59 60 63 64 65 72 82 87 88 86 84 80 71 64 61 60 58 58 56 57 58 60 61 64 66 66 63 58 56 57
nan nan nan nan nan nan nan nan nan nan nan nan nan 83 84 83 83 82 80 77 76 74 73 71 69 67 63 61 61 59 57 57 58 58 57 56 56 56 56 56 57 58 58 58 58 60 61 63 65 66 66 65 64 66 66 63 62 65 68 69 72 77 83 88 87 85 79 73 70 67 67 66 62 59 57 57 59 61 63 64 66 66 63 60 nan
nan nan nan nan nan nan nan nan nan nan nan nan nan nan 81 81 81 82 81 80 78 76 75 75 73 71 67 64 63 62 61 59 57 56 55 54 53 53 54 54 55 56 59 62 62 62 63 65 64 63 64 68 69 71 74 73 69 69 71 77 75 74 77 78 76 78 80 75 71 70 70 69 70 70 68 66 64 63 62 63 65 67 nan 66 nan
Wind_Direction
215 214 218 217 217 217 213 218 224 221 219 222 222 225 227 225 223 214 220 221 231 237 233 227 225 222 219 227 237 246 251 248 243 237 238 205 174 166 163 161 144 140 138 133 142 149 148 149 151 155 164 160 163 166 169 167 162 153 151 152 146 156 151 146 143 144 159 188 176 169 186 191 180 245 131 139 138 143 130 117 110 116 116 107 101
215 217 218 217 217 215 211 214 219 219 219 221 226 226 227 230 229 228 223 223 231 233 237 231 229 228 227 233 242 251 254 257 248 242 242 229 179 189 176 164 153 140 142 134 135 144 142 139 141 145 155 151 154 158 166 169 167 160 156 152 149 149 170 143 143 143 147 165 161 188 183 274 147 302 314 142 144 131 126 117 104 111 108 104 80
216 218 219 219 220 217 215 214 221 226 222 215 222 227 227 229 231 228 219 217 225 225 231 230 232 233 228 234 245 251 259 258 251 250 251 260 227 184 186 186 167 149 137 131 126 131 128 130 132 142 154 150 151 155 162 171 175 173 169 172 169 163 175 190 158 147 146 152 164 158 194 236 59 77 18 12 45 42 57 82 144 107 31 51 348
212 216 217 216 219 220 218 214 218 222 219 211 214 223 225 228 230 224 220 216 222 226 225 227 232 232 229 234 241 246 256 262 259 257 261 266 258 224 201 200 189 169 154 147 138 136 131 131 131 136 143 144 147 154 165 175 183 190 189 193 198 191 197 221 235 193 183 156 174 175 205 165 30 7 356 9 25 13 353 339 346 343 325 315 320
209 210 214 215 217 218 217 217 215 216 215 213 214 223 227 227 228 225 219 214 214 223 224 223 222 224 222 230 238 245 253 263 267 259 254 257 263 246 227 217 203 188 178 168 160 150 144 136 138 143 141 137 141 146 159 168 187 196 199 208 214 218 225 231 235 243 237 211 198 238 264 298 320 326 325 334 349 0 350 345 334 335 329 326 327
226 217 214 214 214 216 217 217 216 217 217 214 215 222 226 227 228 227 224 219 217 217 222 220 217 218 218 223 234 242 248 256 264 263 259 258 258 252 240 228 212 204 196 186 175 163 149 143 144 145 142 137 140 149 162 168 190 198 203 215 222 230 235 237 241 245 247 244 237 230 261 265 271 283 291 298 302 306 316 326 338 337 326 323 320
235 227 222 220 216 215 218 218 217 219 220 218 218 221 225 228 228 227 228 224 222 217 215 217 216 216 218 219 223 234 244 253 258 262 258 254 255 252 241 235 223 215 205 190 182 171 153 147 145 141 137 136 135 143 158 169 187 184 209 223 233 242 244 245 251 250 253 253 255 260 256 268 279 276 285 288 289 302 299 294 306 316 321 318 322
238 234 227 224 221 219 218 218 218 219 220 222 222 222 224 227 229 228 229 229 224 220 217 217 216 215 215 218 220 228 238 244 253 257 256 256 253 249 246 237 227 219 210 202 187 176 164 150 140 139 132 131 128 139 153 162 187 187 207 228 243 251 245 250 257 260 262 266 269 266 270 268 277 286 287 289 284 288 296 288 288 298 306 315 322
242 239 233 227 225 222 221 220 219 220 223 224 225 224 225 227 230 232 233 231 227 224 221 217 217 216 214 217 218 223 228 235 243 250 253 254 249 246 246 244 238 226 217 202 198 192 177 166 154 139 133 110 83 133 158 196 196 197 209 241 256 259 258 259 265 269 275 279 280 287 291 292 291 290 291 293 290 280 274 276 280 289 297 303 314
245 243 239 233 230 229 228 224 221 222 224 224 224 225 225 227 230 234 234 233 231 230 228 225 221 220 220 220 219 219 220 226 242 269 259 246 248 241 240 241 239 234 227 217 204 197 185 177 170 130 126 65 36 31 39 43 14 149 212 242 261 269 275 273 275 282 288 296 306 309 313 308 300 301 301 298 296 294 286 278 272 273 282 292 301
244 246 240 236 234 234 232 229 226 226 227 225 226 225 225 225 227 229 231 233 235 237 238 236 229 220 219 220 221 218 215 219 245 nan nan 263 242 239 241 239 239 238 233 226 214 204 199 196 187 194 270 355 40 11 1 359 354 356 16 47 228 258 272 287 296 308 311 316 312 322 325 313 314 316 320 313 308 303 292 285 281 279 281 281 285
235 239 236 234 234 235 233 232 232 229 229 229 229 228 226 225 226 229 230 232 234 236 235 235 232 228 224 223 220 216 213 220 nan nan nan nan 258 239 234 233 231 232 231 225 221 218 212 207 210 211 223 237 240 270 314 340 336 335 347 354 359 7 350 301 293 305 323 327 327 330 322 323 321 324 329 330 328 315 302 296 295 291 287 289 291
220 227 232 233 235 234 232 232 232 230 231 232 232 232 230 226 224 225 226 227 229 233 232 233 234 234 229 227 221 215 209 nan nan nan nan nan nan 255 232 230 231 228 228 231 227 224 223 221 215 219 218 259 258 246 249 270 306 334 333 337 338 345 350 5 1 339 317 329 334 327 323 319 326 327 325 331 326 327 313 309 304 299 294 293 294
225 222 226 234 235 233 230 228 227 226 228 228 229 231 231 228 224 223 224 227 230 232 232 232 231 233 232 228 224 217 210 224 256 nan nan nan nan nan 239 235 232 227 227 229 229 228 231 231 228 225 227 239 251 256 255 257 259 271 280 283 285 312 338 353 358 5 353 342 335 329 322 320 330 324 317 319 326 329 327 328 315 308 305 304 296
227 229 228 230 235 237 238 236 232 230 229 229 228 230 229 227 224 224 224 228 231 232 231 231 231 234 234 232 228 221 216 225 253 264 265 268 270 nan 244 241 235 231 230 230 231 231 233 236 235 231 234 243 252 260 258 260 263 263 270 277 285 290 300 309 317 321 324 331 340 342 333 327 330 328 316 318 327 329 330 335 326 318 320 319 316
230 225 229 232 233 233 234 232 231 237 240 244 244 242 240 236 231 229 225 224 225 227 231 231 232 233 233 231 227 222 220 240 257 264 268 267 271 256 250 248 243 236 234 234 234 235 237 238 238 240 242 247 261 277 271 261 261 267 272 275 277 286 295 304 312 317 322 321 326 330 324 320 312 310 301 301 306 311 317 324 322 327 329 324 313
232 228 227 231 232 234 232 230 228 232 233 240 247 251 255 256 250 243 235 229 226 228 230 234 234 233 234 236 233 227 225 245 263 268 269 272 265 255 255 251 249 245 240 238 239 240 241 242 244 242 245 252 264 278 280 276 266 269 273 276 276 280 287 288 309 325 329 331 332 329 324 321 314 311 312 311 311 304 307 315 320 321 324 322 311
231 227 228 232 235 235 232 228 228 232 237 240 241 239 240 245 253 255 250 241 233 230 231 232 234 237 239 241 242 237 233 246 268 271 276 277 274 264 259 256 252 250 246 246 244 243 245 252 252 248 248 252 266 277 281 279 273 273 275 277 281 286 286 283 280 294 322 328 326 325 322 317 311 311 316 319 318 308 316 320 317 312 320 317 314
231 229 228 229 229 230 231 231 233 234 235 237 237 237 239 239 241 246 249 248 241 237 236 234 235 238 240 241 247 246 237 246 270 276 281 281 277 262 262 259 256 252 249 248 251 248 246 253 263 258 254 257 268 276 281 280 276 276 277 277 282 287 285 281 285 289 290 294 298 299 297 303 304 304 310 327 322 317 317 318 310 310 312 312 310
228 229 229 230 232 232 229 227 230 233 234 233 233 236 237 233 233 237 241 244 244 242 241 240 238 238 239 241 243 249 245 243 261 278 280 282 287 270 263 264 262 260 254 250 250 253 255 252 260 272 270 265 268 276 281 287 281 279 278 279 282 285 280 283 289 289 287 290 289 290 288 284 287 293 298 303 308 313 314 313 311 307 307 309 312
229 230 231 229 233 235 233 229 227 229 234 237 236 236 237 235 232 229 232 232 236 238 238 239 238 237 238 239 241 246 247 249 257 276 278 283 287 282 266 271 269 263 259 256 253 252 254 256 254 269 277 275 273 276 280 286 286 279 281 282 285 281 277 280 283 290 287 286 287 287 285 282 282 284 288 294 298 303 307 311 309 307 307 307 310
230 231 231 231 232 236 236 233 227 224 225 231 235 238 238 240 243 240 230 225 221 225 229 234 235 234 236 239 240 244 250 259 253 270 280 282 285 292 274 273 273 267 264 260 258 255 255 254 255 265 276 278 278 278 281 281 286 277 282 287 287 283 281 282 279 281 284 285 284 285 284 281 279 279 283 287 292 297 303 305 306 306 307 310 312
nan nan nan 232 232 235 239 239 235 229 226 226 229 234 240 245 250 254 249 236 223 211 223 229 230 230 233 235 238 242 248 253 268 263 277 284 287 291 295 281 280 274 270 268 268 263 259 258 257 265 274 278 279 280 281 284 280 280 290 288 288 288 281 278 281 283 285 286 285 284 282 281 280 282 285 288 290 295 297 295 291 297 302 304 308
nan nan nan nan 233 234 236 239 242 239 231 228 228 230 235 243 250 255 255 251 240 221 210 217 220 218 219 224 224 232 245 251 264 278 275 288 288 295 299 300 287 277 277 270 268 266 266 265 263 270 276 279 281 281 283 286 283 294 295 296 293 283 278 283 285 287 288 287 287 285 284 284 284 285 289 291 291 289 291 288 287 293 293 289 296
nan nan nan nan nan nan 234 237 241 245 245 240 235 234 234 238 243 247 251 252 248 232 210 212 217 219 221 224 227 232 242 254 256 272 287 286 294 297 302 305 302 294 281 274 270 269 271 275 274 276 277 278 281 282 280 287 297 294 296 297 289 282 288 289 289 288 290 291 291 290 289 289 289 289 288 289 290 290 291 291 292 291 285 280 270
nan nan nan nan nan nan nan 233 236 240 243 247 244 240 238 242 242 238 238 244 247 236 217 211 212 216 218 222 230 235 244 250 257 261 272 282 286 299 304 304 305 302 298 281 285 284 277 277 279 278 275 275 273 272 275 282 294 300 296 289 285 290 291 292 293 294 295 294 294 294 291 288 287 288 290 292 293 295 293 292 292 289 284 276 264
nan nan nan nan nan nan nan nan 234 236 240 244 246 244 240 238 237 238 234 232 235 232 221 211 207 208 211 221 230 238 243 252 258 263 268 272 274 277 281 280 288 285 275 270 269 265 268 268 266 271 272 283 289 288 291 291 290 289 287 290 293 295 298 299 301 300 299 295 292 290 289 288 286 286 289 292 295 297 296 293 289 286 283 278 267
nan nan nan nan nan nan nan nan nan 235 238 239 240 241 240 238 236 232 227 225 229 232 227 218 220 222 226 235 240 243 252 259 265 269 272 272 272 274 275 273 273 273 272 268 268 268 266 268 272 270 272 273 279 281 287 289 291 291 291 294 297 302 307 309 305 300 298 294 290 287 285 285 286 287 287 289 291 290 291 288 286 283 282 277 274
nan nan nan nan nan nan nan nan nan nan 236 238 238 238 239 240 236 229 225 225 225 225 222 222 230 234 238 241 249 255 260 263 268 272 269 273 274 273 276 276 274 274 282 281 268 263 263 268 273 279 280 283 284 288 290 289 289 291 294 294 296 300 301 302 305 304 301 296 294 289 283 281 282 282 282 283 284 282 278 277 275 274 268 267 266
nan nan nan nan nan nan nan nan nan nan nan nan nan nan nan 242 239 232 226 218 209 208 217 218 217 229 234 239 251 258 264 266 260 266 272 274 276 279 278 279 283 280 282 285 276 269 272 273 277 282 286 289 294 298 299 296 294 295 297 300 298 298 299 300 301 300 297 295 292 286 280 278 276 275 275 279 277 280 281 281 279 277 271 265 262
nan nan nan nan nan nan nan nan nan nan nan nan nan nan nan 239 248 240 229 224 213 198 200 201 199 215 231 231 244 260 253 239 245 263 274 276 276 279 279 278 282 286 277 271 275 280 280 284 287 289 292 294 299 302 300 300 301 302 303 301 300 299 296 295 295 294 293 293 294 291 285 279 272 271 274 277 279 280 279 281 281 277 271 263 264
nan nan nan nan nan nan nan nan nan nan nan nan nan nan 234 232 228 230 232 226 220 215 206 204 211 224 232 239 238 240 252 254 253 261 269 273 277 277 276 275 275 277 281 285 278 283 288 290 291 292 293 297 300 299 302 304 306 308 307 306 303 298 293 290 289 290 293 295 295 291 284 278 272 270 270 273 278 282 282 285 287 280 265 261 266
nan nan nan nan nan nan nan nan nan nan nan nan nan nan nan nan nan nan 220 226 225 218 216 219 223 227 236 236 241 245 238 239 248 259 265 267 271 272 273 275 273 273 275 276 280 282 285 288 290 291 294 296 295 297 301 305 307 308 309 309 306 298 291 287 285 288 291 291 290 288 286 281 276 273 273 277 283 289 290 291 287 275 267 271 273
nan nan nan nan nan nan nan nan nan nan nan nan nan nan nan nan nan nan 221 217 217 225 231 233 233 235 237 243 245 243 242 239 239 249 260 263 266 267 266 261 265 277 282 279 280 281 282 284 286 288 290 291 292 294 297 300 302 303 303 305 305 299 291 285 285 287 287 288 292 292 287 281 274 273 276 282 289 294 294 289 277 272 277 284 285
nan nan nan nan nan nan nan nan nan nan nan nan nan nan nan nan nan 227 227 226 225 223 223 230 240 248 244 244 249 251 249 249 250 252 253 254 257 260 261 260 262 264 266 269 274 276 278 280 281 283 284 287 289 291 294 297 297 299 300 300 301 300 293 289 287 287 288 289 290 288 283 278 274 274 277 283 289 292 289 277 262 264 273 284 286
nan nan nan nan nan nan nan nan nan nan nan nan nan nan nan nan nan nan 227 229 229 229 228 232 234 243 252 247 248 252 252 252 255 257 254 254 259 266 262 263 266 268 271 274 275 275 275 276 278 278 280 282 284 287 290 292 294 294 296 298 298 297 295 290 286 286 288 289 289 286 282 278 276 276 278 280 286 286 279 267 259 262 270 276 279
nan nan nan nan nan nan nan nan nan nan nan nan nan nan nan nan nan nan 228 230 231 233 234 234 233 238 247 248 252 252 253 256 260 259 252 253 263 265 262 265 267 268 269 270 271 272 273 273 273 275 277 280 282 284 286 288 288 288 291 294 293 293 292 289 286 284 286 289 288 285 282 278 277 278 279 280 282 282 277 266 260 264 271 276 276
nan nan nan nan nan nan nan nan nan nan nan nan nan nan nan nan nan 226 227 225 227 230 232 235 237 234 234 238 250 249 250 251 256 253 247 247 253 257 260 261 265 266 266 267 269 271 272 272 273 275 276 277 280 281 283 284 286 287 288 290 290 289 289 288 286 284 283 284 285 281 280 278 277 278 280 281 281 280 277 269 263 263 266 275 277
nan nan nan nan nan nan nan nan nan nan nan nan nan nan nan nan 220 224 224 225 227 230 231 232 234 234 234 239 247 249 252 252 253 249 247 248 253 257 258 260 261 262 263 265 268 271 273 274 276 277 277 277 279 280 282 284 284 285 286 287 287 285 286 287 289 286 283 283 282 278 277 276 276 277 279 281 282 281 278 272 264 263 265 271 275
nan nan nan nan nan nan nan nan nan nan nan nan nan nan nan nan nan 224 226 225 226 229 231 230 230 230 234 241 246 250 251 252 251 248 246 249 252 255 256 257 259 260 263 266 270 275 280 280 280 281 281 281 281 281 282 283 283 283 284 286 285 284 284 287 290 289 285 282 280 277 276 276 276 276 277 279 281 282 281 276 271 266 264 268 274
nan nan nan nan nan nan nan nan nan nan nan nan nan 224 222 nan nan 226 226 227 227 228 229 232 234 238 238 234 234 241 247 247 246 245 244 247 251 255 256 256 257 259 261 264 268 272 276 278 280 282 282 283 283 282 283 283 284 285 287 286 283 281 281 283 287 289 285 281 279 278 277 274 273 275 277 278 279 281 281 279 276 271 268 270 273
nan nan nan nan nan nan nan nan nan nan nan nan 224 223 222 222 nan 226 228 229 229 230 229 232 238 243 239 236 244 250 248 245 243 242 242 242 245 248 250 252 254 258 260 263 265 267 269 274 277 278 279 281 282 283 283 285 286 287 288 287 286 284 282 281 283 284 284 280 277 276 276 275 274 274 275 275 276 276 276 278 277 274 273 274 273
nan nan nan nan nan nan nan nan nan nan nan 225 225 225 223 223 226 229 228 229 232 234 234 236 238 240 242 241 243 248 252 252 252 251 250 250 251 251 251 251 252 255 259 262 264 266 268 269 269 269 270 270 269 271 276 281 283 285 285 284 281 277 276 277 279 279 280 279 276 272 270 269 268 268 269 271 272 274 277 277 276 275 276 273 271
nan nan nan nan nan nan nan nan nan nan nan nan 222 223 224 225 227 230 231 229 230 232 235 237 240 242 242 242 244 248 251 252 253 253 253 254 253 253 253 252 252 254 256 258 259 262 267 270 271 272 271 270 271 271 271 270 272 275 277 275 274 275 275 275 276 277 277 276 275 273 271 269 268 267 266 267 270 273 275 277 276 274 271 267 266
nan nan nan nan nan nan nan nan nan nan nan nan nan nan nan 224 226 228 229 228 227 230 233 236 241 244 243 242 244 248 250 251 252 253 254 254 254 255 255 255 256 256 258 259 260 260 263 266 269 271 272 271 271 271 273 274 275 274 270 267 267 268 269 270 272 273 275 276 275 273 270 269 269 267 265 265 264 265 269 273 274 269 264 263 266
nan nan nan nan nan nan nan nan nan nan nan nan nan nan 232 229 228 227 226 224 226 230 234 237 242 246 245 244 245 248 251 253 253 253 254 254 255 256 257 257 257 257 258 259 260 259 260 262 264 266 269 270 272 274 273 272 273 274 271 265 265 266 266 267 269 270 272 274 275 274 272 270 268 266 265 264 262 262 265 267 265 260 258 260 263
nan nan nan nan nan nan nan nan nan nan nan nan nan 239 239 237 236 234 232 232 234 236 239 242 245 248 248 247 247 250 253 255 256 254 254 254 255 256 256 256 257 257 257 258 259 259 258 259 261 262 265 267 268 268 270 274 277 277 272 270 270 269 270 270 271 271 272 273 273 272 271 271 270 270 266 262 262 263 265 264 264 263 261 262 267
nan nan nan nan nan nan nan nan nan nan nan nan 238 240 241 242 241 240 239 239 241 242 243 245 247 250 251 252 252 253 255 257 257 257 256 255 255 256 256 256 255 255 255 255 256 257 257 258 259 261 263 263 264 265 268 271 275 276 275 271 269 268 267 267 266 264 260 259 262 269 274 273 271 270 268 265 264 265 265 265 265 265 264 265 266
nan nan nan nan nan nan nan nan nan nan nan nan nan 241 242 244 244 243 243 243 245 246 246 247 248 250 253 255 256 256 258 259 258 257 257 257 257 257 258 257 256 256 256 257 258 258 258 259 260 261 262 262 262 264 266 268 271 272 273 271 271 270 268 267 267 264 262 259 258 261 263 265 266 267 269 270 269 268 267 267 266 265 265 265 265
nan nan nan nan nan nan nan nan nan nan nan nan nan 242 244 245 246 246 245 246 246 247 249 249 250 251 253 255 256 257 260 261 260 258 258 258 258 259 259 259 259 260 260 261 262 262 261 261 261 262 263 265 266 266 267 267 267 268 268 268 268 269 269 268 266 263 259 256 256 257 261 264 265 265 266 266 266 267 269 270 270 267 265 265 nan
nan nan nan nan nan nan nan nan nan nan nan nan nan nan 245 247 248 248 247 247 247 247 249 251 251 252 253 255 255 258 262 265 264 262 261 261 261 263 265 266 267 269 269 269 268 267 265 263 263 263 264 265 266 267 267 266 265 265 263 262 261 262 264 264 263 261 259 257 256 256 258 260 262 264 266 269 268 266 267 270 270 268 nan 264 nan